Location: Blairvadach
(56.2780°N, 6.9720°W)
Time: 16:10:12
(UTC+01:00)

ISS - Visible Passes

Search period start: 21 October 2019 00:00
Search period end: 30 October 2019 23:00
Orbit: 411 x 421 km, 51.6° (Epoch: 21 October)

Date Brightness Start Highest point End Pass type
(mag) Time Alt. Az. Time Alt. Az. Time Alt. Az.
26 Oct -0.9 07:23:41 10° S 07:25:49 16° SSE 07:27:58 10° ESE visible
27 Oct -0.8 05:36:07 10° SSE 05:37:27 12° SE 05:38:47 10° ESE visible
28 Oct -1.7 06:22:09 10° SW 06:24:57 24° SSE 06:27:44 10° ESE visible
29 Oct -1.5 05:34:09 11° SSW 05:36:28 20° SSE 05:38:59 10° ESE visible
30 Oct -1.3 04:47:44 15° SSE 04:48:02 15° SSE 04:50:04 10° ESE visible
30 Oct -2.3 06:21:02 10° SW 06:24:06 32° SSE 06:27:10 10° ESE visible
